Find Starlink 4107

NORAD ID: 53287 Int'l Des: 2022-086 Owner: SPXS Country: US Constellation: starlink operational
LEOCIRCULAR

Live Position

Loading 3D Globe...

About Starlink 4107

Description loading...

Upcoming Passes

Passes for default location (London). Set your location on the main map for personalized predictions.

Altitude History

Loading altitude history...

Two-Line Element Set

1 53287U 22086AX 26106.14354422 .00000366 00000-0 41074-4 0 9998
2 53287 53.2184 15.9837 0001500 89.7391 270.3773 15.08843445206847
Epoch: Apr 16, 2026 • Age: 9 hours

Current Status

Altitude 539.8 km
Velocity 7.60 km/s
Sub-Earth Point 21.12°N, 151.97°E
Launch Date Jul 24, 2022
Age 3.7 years
Type internet

Technical Details

Classification Payload
Mass 297.00 kg
Dry Mass 275.00 kg
Total Mass 297.00 kg
Length 0.20 m
Diameter 2.80 m
Span 9.00 m
Shape Box + pan
Manufacturer SPXS
Bus Type Starlink
Phase Status In Orbit
Owner/State SPXS/US

Most Searched